TimeMDT,TemperatureF,Dew PointF,Humidity,Sea Level PressureIn,VisibilityMPH,Wind Direction,Wind SpeedMPH,Gust SpeedMPH,PrecipitationIn,Events,Conditions,WindDirDegrees,DateUTC
12:53 AM,36.0,32.0,86,30.01,10.0,SW,4.6,-,N/A,,Overcast,230,2012-10-25 06:53:00
1:53 AM,35.1,30.9,85,30.07,10.0,SW,4.6,-,N/A,,Overcast,230,2012-10-25 07:53:00
2:53 AM,34.0,28.0,79,30.10,10.0,WSW,6.9,-,N/A,,Overcast,240,2012-10-25 08:53:00
3:53 AM,34.0,28.0,79,30.11,10.0,NNW,3.5,-,N/A,,Overcast,330,2012-10-25 09:53:00
4:53 AM,33.1,25.0,72,30.13,10.0,Calm,Calm,-,N/A,,Overcast,0,2012-10-25 10:53:00
5:53 AM,32.0,26.1,79,30.18,10.0,Calm,Calm,-,N/A,,Overcast,0,2012-10-25 11:53:00
6:53 AM,30.0,26.1,85,30.19,10.0,Calm,Calm,-,N/A,,Clear,0,2012-10-25 12:53:00
7:53 AM,28.0,24.1,85,30.21,10.0,West,3.5,-,N/A,,Clear,270,2012-10-25 13:53:00
8:53 AM,30.9,24.1,76,30.21,10.0,Calm,Calm,-,N/A,,Clear,0,2012-10-25 14:53:00
9:53 AM,34.0,26.1,73,30.20,10.0,Calm,Calm,-,N/A,,Clear,0,2012-10-25 15:53:00
10:53 AM,36.0,25.0,64,30.19,10.0,Calm,Calm,-,N/A,,Mostly Cloudy,0,2012-10-25 16:53:00
11:53 AM,37.9,26.1,62,30.18,10.0,Calm,Calm,-,N/A,,Overcast,0,2012-10-25 17:53:00
12:38 PM,41.0,26.6,57,30.14,1.5,Calm,Calm,-,N/A,,Haze,0,2012-10-25 18:38:00
12:46 PM,39.2,26.6,61,30.14,10.0,South,4.6,-,N/A,,Mostly Cloudy,190,2012-10-25 18:46:00
12:53 PM,41.0,28.0,60,30.12,10.0,Variable,5.8,-,N/A,,Mostly Cloudy,0,2012-10-25 18:53:00
1:53 PM,43.0,26.1,51,30.10,10.0,Variable,3.5,-,N/A,,Scattered Clouds,0,2012-10-25 19:53:00
2:53 PM,42.1,24.1,49,30.09,10.0,WSW,6.9,-,N/A,,Mostly Cloudy,240,2012-10-25 20:53:00
3:53 PM,41.0,26.1,55,30.13,10.0,West,11.5,-,N/A,,Overcast,260,2012-10-25 21:53:00
3:56 PM,37.4,26.6,65,30.14,1.0,North,-9999.0,-,N/A,,Haze,0,2012-10-25 21:56:00
3:59 PM,33.8,28.4,81,30.15,0.2,WNW,24.2,38.0,0.01,Fog-Snow,Heavy Snow,290,2012-10-25 21:59:00
4:04 PM,32.0,30.2,93,30.15,0.2,WNW,16.1,33.4,0.01,Fog-Snow-Thunderstorm,Heavy Thunderstorms and Snow,300,2012-10-25 22:04:00
4:15 PM,32.0,30.2,93,30.14,1.0,NNW,5.8,-,0.01,Snow-Thunderstorm,Light Thunderstorms and Snow,330,2012-10-25 22:15:00
4:17 PM,33.8,30.2,87,30.14,1.5,WNW,8.1,-,0.01,Snow,Light Snow,300,2012-10-25 22:17:00
4:20 PM,33.8,30.2,87,30.15,3.0,West,6.9,-,0.01,Snow,Light Snow,260,2012-10-25 22:20:00
4:53 PM,35.1,30.0,82,30.19,10.0,WSW,5.8,-,0.01,,Mostly Cloudy,240,2012-10-25 22:53:00
5:53 PM,36.0,28.9,76,30.21,10.0,South,5.8,-,0.00,,Overcast,180,2012-10-25 23:53:00
6:20 PM,33.8,28.4,81,30.21,2.5,WNW,25.3,31.1,0.01,Snow,Light Snow,290,2012-10-26 00:20:00
6:27 PM,33.8,28.4,81,30.21,1.0,WNW,16.1,31.1,0.01,Snow,Light Snow,290,2012-10-26 00:27:00
6:30 PM,32.0,28.4,87,30.21,0.8,NW,12.7,-,0.01,Snow,Light Snow,310,2012-10-26 00:30:00
6:36 PM,32.0,30.2,93,30.21,1.2,WNW,10.4,-,0.01,Snow,Light Snow,300,2012-10-26 00:36:00
6:40 PM,33.8,28.4,81,30.22,3.0,NW,10.4,-,0.01,Snow,Light Snow,310,2012-10-26 00:40:00
6:53 PM,34.0,27.0,75,30.27,10.0,WNW,10.4,-,0.01,,Overcast,300,2012-10-26 00:53:00
7:53 PM,33.1,28.0,82,30.30,10.0,WSW,5.8,-,N/A,,Overcast,250,2012-10-26 01:53:00
8:53 PM,34.0,25.0,70,30.30,10.0,West,9.2,-,N/A,,Scattered Clouds,280,2012-10-26 02:53:00
10:53 PM,32.0,24.1,73,30.34,10.0,West,4.6,-,N/A,,Mostly Cloudy,270,2012-10-26 04:53:00
11:53 PM,30.0,24.1,79,30.35,10.0,West,3.5,-,N/A,,Scattered Clouds,260,2012-10-26 05:53:00